GUANICA PR US current weather conditions

sailwx.info

Wind from 049 at 4 knots gusting 9

Air temperature 25.0° C
Dewpoint 19.4° C

Last reported at 2018-May-22 10:09 UTC.
Time now 2018-May-22 11:30 UTC

Location: N 17°57' W 066°53'.
View on Google Maps.

See reports from other nearby stations

  
Tides and Currents Weather Stations Pressure Air Temp Water Temp Dewpoint Dewpoint Depression Visibility Wind Speed Wind Dir Waves Ship Positions
date/time (UTC)wind fromknots sea level pressurealtimeterstation pressurevisibilityair tempwater tempwave heightnotes
2018-May-22 10:09 049 4 gusting 9 25.0
2018-May-22 09:09 058 5 gusting 9 25.0
2018-May-22 08:09 064 3 gusting 8 25.0
2018-May-22 07:09 052 4 gusting 9 25.0
2018-May-22 06:09 050 4 gusting 7 25.0
2018-May-22 05:09 049 4 gusting 7 25.0
2018-May-22 04:09 045 4 gusting 6 25.6
2018-May-22 03:09 058 4 gusting 7 25.0
2018-May-22 02:09 051 3 gusting 6 26.1
2018-May-22 01:09 040 2 gusting 6 26.1
2018-May-22 00:09 026 2 gusting 6 26.7
2018-May-21 23:09 066 2 gusting 6 26.7
2018-May-21 22:09 018 3 gusting 12 26.7
2018-May-21 21:09 093 5 gusting 11 28.3
2018-May-21 20:09 093 5 gusting 10 28.9
2018-May-21 19:09 107 6 gusting 11 28.9
2018-May-21 18:09 099 5 gusting 14 30.6
2018-May-21 17:09 105 7 gusting 15 31.1
2018-May-21 16:09 106 6 gusting 14 31.1
2018-May-21 15:09 107 6 gusting 12 31.1
2018-May-21 14:09 111 6 gusting 10 31.1
2018-May-21 13:09 095 6 gusting 13 30.6
2018-May-21 12:09 074 6 gusting 13 28.9
2018-May-21 11:09 070 6 gusting 9 27.2
2018-May-21 10:09 049 4 gusting 8 24.4
2018-May-21 09:09 061 3 gusting 6 24.4
2018-May-21 08:09 063 2 gusting 6 23.9
2018-May-21 07:09 060 2 gusting 6 23.9
2018-May-21 06:09 055 3 gusting 6 24.4
2018-May-21 05:09 056 3 gusting 8 24.4
2018-May-21 04:09 056 2 gusting 11 25.0
2018-May-21 03:09 074 5 gusting 10 25.6
2018-May-21 02:09 058 3 gusting 6 25.6
2018-May-21 01:09 061 2 gusting 13 26.1
2018-May-21 00:09 083 6 gusting 15 26.7
2018-May-20 23:09 087 6 gusting 15 27.2
2018-May-20 22:09 087 6 gusting 17 27.8
2018-May-20 21:09 090 7 gusting 17 28.3
2018-May-20 20:09 092 7 gusting 19 27.8
2018-May-20 19:09 101 8 gusting 19 30.0
2018-May-20 18:09 098 8 gusting 18 31.1
2018-May-20 17:09 097 8 gusting 19 31.7
2018-May-20 16:09 096 8 gusting 20 31.7
2018-May-20 15:09 102 8 gusting 20 31.1
2018-May-20 14:09 095 8 gusting 19 31.1
2018-May-20 13:09 100 6 gusting 14 30.0
2018-May-20 12:09 078 7 gusting 17 28.9
2018-May-20 11:09 075 5 gusting 11 26.7